User: anonymous   Login
Location: Unspecified
(0.0000°N, 0.0000°E)
Time: 05:29:12
(UTC+00:00)
Language:

Vela 1A - Orbit

View from above orbital plane
View from above orbital plane
View from above satellite
View from above satellite

Ground track
Ground track

The orbit data is extracted from the following two-line orbital elements,

1 00692U 63039C   16209.24420010 -.00001016  00000-0  00000+0 0  9997
2 00692  36.9665 356.2150 5509429 177.5899 358.5413  0.21887984 42604
Epoch (UTC): 27 July 2016 05:51:38
Eccentricity: 0.5509429
inclination: 36.9665°
perigee height: 45849 km
apogee height: 174002 km
right ascension of ascending node: 356.2150°
argument of perigee: 177.5899°
revolutions per day: 0.21887984
mean anomaly at epoch: 358.5413°
orbit number at epoch: 4260

The dashed part of the orbit path shows where the satellite is in the earth's shadow,  

DLR